Weather History for Jacksonville NAS, FL

Change the Weather History Date:

Monday, October 17, 2011

  Actual Average Record
Temperature  
Mean Temperature 73 °F -  
Max Temperature 84 °F 77 °F 86 °F (2008)
Min Temperature 62 °F 63 °F 51 °F (2001)
Cooling Degree Days 8    
Growing Degree Days 23 (Base 50)    
Moisture  
Dew Point 65 °F    
Average Humidity 76    
Maximum Humidity 100    
Minimum Humidity 49    
Precipitation  
Precipitation 0.00 in - - ()
Sea Level Pressure  
Sea Level Pressure 29.97 in    
Wind  
Wind Speed 3 mph (ESE)    
Max Wind Speed 12 mph    
Max Gust Speed -    
Visibility 10 miles    
Events      
Averages and records for this station are not official NWS values.
T = Trace of Precipitation, MM = Missing Value Source: NWS Daily Summary

Daily Weather History Graph

Daily Weather History Graph

Search for Another Location

Airport:

Trip Planner

Search our weather history database for the weather conditions in past years. The results will help you decide how hot, cold, wet, or windy it might be!

Date:

Astronomy

Oct. 17, 2011 Rise Set
Actual Time 7:29 AM EDT 6:53 PM EDT
Civil Twilight 7:05 AM EDT 7:18 PM EDT
Nautical Twilight 6:37 AM EDT 7:45 PM EDT
Astronomical Twilight 6:09 AM EDT 8:13 PM EDT
Moon 10:50 PM EDT (10/17) 12:17 PM EDT (10/17)
Length of Visible Light 12h 12m
Length of Day
11h 23m
Waning Gibbous, 74% of the Moon is Illuminated
Oct 17
Waning Gibbous
Oct 19
Last Quarter
Oct 26
New
Nov 2
First Quarter
Nov 10
Full

Hourly Weather History & Observations

Time (EDT) Temp. Heat Index Dew Point Humidity Pressure Visibility Wind Dir Wind Speed Gust Speed Precip Events Conditions
12:53 AM 70.0 °F - 61.0 °F 73% 30.05 in 10.0 mi Calm Calm - N/A   Clear
1:53 AM 66.9 °F - 61.0 °F 81% 30.04 in 10.0 mi Calm Calm - N/A   Clear
2:53 AM 64.9 °F - 62.1 °F 90% 30.03 in 10.0 mi Calm Calm - N/A   Clear
3:53 AM 64.0 °F - 61.0 °F 90% 30.01 in 10.0 mi Calm Calm - N/A   Clear
4:53 AM 64.0 °F - 61.0 °F 90% 30.00 in 10.0 mi Calm Calm - N/A   Partly Cloudy
5:53 AM 63.0 °F - 61.0 °F 93% 30.00 in 10.0 mi NNW 3.5 mph - N/A   Partly Cloudy
6:17 AM - - - N/A% - - North - - N/A   Unknown
6:53 AM 62.1 °F - 61.0 °F 96% 30.01 in 10.0 mi Calm Calm - N/A   Partly Cloudy
7:53 AM 62.1 °F - 62.1 °F 100% 30.02 in 10.0 mi NW 3.5 mph - N/A   Scattered Clouds
8:53 AM 64.0 °F - 63.0 °F 96% 30.03 in 10.0 mi North 3.5 mph - N/A   Scattered Clouds
9:53 AM 69.1 °F - 64.9 °F 87% 30.05 in 10.0 mi North 5.8 mph - N/A   Scattered Clouds
10:53 AM 73.9 °F - 66.0 °F 76% 30.04 in 10.0 mi Calm Calm - N/A   Scattered Clouds
11:53 AM 79.0 °F - 64.9 °F 62% 30.02 in 10.0 mi SSE 4.6 mph - N/A   Scattered Clouds
12:53 PM 82.0 °F 83.8 °F 64.9 °F 56% 29.99 in 10.0 mi South 8.1 mph - N/A   Scattered Clouds
1:53 PM 84.0 °F 85.4 °F 64.0 °F 51% 29.95 in 10.0 mi Variable 3.5 mph - N/A   Scattered Clouds
2:53 PM 84.0 °F 84.9 °F 63.0 °F 49% 29.92 in 10.0 mi Variable 3.5 mph - N/A   Scattered Clouds
3:53 PM 84.0 °F 85.8 °F 64.9 °F 53% 29.91 in 10.0 mi ESE 6.9 mph - N/A   Scattered Clouds
4:53 PM 84.0 °F 86.3 °F 66.0 °F 55% 29.90 in 10.0 mi ESE 9.2 mph - N/A   Scattered Clouds
5:53 PM 82.0 °F 84.5 °F 66.9 °F 60% 29.91 in 10.0 mi ESE 11.5 mph - N/A   Scattered Clouds
6:00 PM - - - N/A% - - North - - N/A   Unknown
6:53 PM 79.0 °F - 66.9 °F 66% 29.91 in 10.0 mi ESE 11.5 mph - N/A   Partly Cloudy
7:53 PM 78.1 °F - 68.0 °F 71% 29.91 in 10.0 mi ESE 8.1 mph - N/A   Partly Cloudy
8:53 PM 75.9 °F - 69.1 °F 79% 29.92 in 10.0 mi ESE 6.9 mph - N/A   Partly Cloudy
9:53 PM 75.0 °F - 69.1 °F 82% 29.91 in 10.0 mi ESE 3.5 mph - N/A   Partly Cloudy
10:53 PM 75.0 °F - 69.1 °F 82% 29.91 in 10.0 mi ESE 8.1 mph - N/A   Partly Cloudy
11:53 PM 73.9 °F - 70.0 °F 87% 29.89 in 10.0 mi ESE 4.6 mph - N/A   Partly Cloudy